New Paris, IN

4:51 AM EST on February 25, 2017 (GMT -0500)
Goshen Municipal

Weather History for KGSH - November, 2012

Change the Weather History Date:

Tuesday, November 13, 2012

  Actual Average Record
Temperature  
Mean Temperature 32 °F -  
Max Temperature 37 °F 47 °F 71 °F (1955)
Min Temperature 25 °F 31 °F 14 °F (1986)
Degree Days  
Heating Degree Days 34    
Moisture  
Dew Point 21 °F    
Average Humidity 65    
Maximum Humidity 85    
Minimum Humidity 50    
Precipitation  
Precipitation 0.00 in - - ()
Sea Level Pressure  
Sea Level Pressure 30.46 in    
Wind  
Wind Speed 8 mph (WSW)    
Max Wind Speed 12 mph    
Max Gust Speed -    
Visibility 10 miles    
Events      
Averages and records for this station are not official NWS values.
T = Trace of Precipitation, MM = Missing Value Source: NWS Daily Summary

Daily Weather History Graph

Daily Weather History Graph

Search for Another Location

Airport or City:

Trip Planner

Search our weather history database for the weather conditions in past years. The results will help you decide how hot, cold, wet, or windy it might be!

Date:

Astronomy

Nov. 13, 2012 Rise Set
Actual Time 7:30 AM EST 5:24 PM EST
Civil Twilight 7:00 AM EST 5:54 PM EST
Nautical Twilight 6:26 AM EST 6:27 PM EST
Astronomical Twilight 5:54 AM EST 7:00 PM EST
Moon 7:07 AM EST (11/13) 5:16 PM EST (11/13)
Length of Visible Light 10h 53m
Length of Day
9h 54m
Waning Crescent, 0% of the Moon is Illuminated
Nov 13
Waning Crescent
Nov 13
New
Nov 20
First Quarter
Nov 28
Full
Dec 6
Last Quarter

Hourly Weather History & Observations

Time (EST) Temp. Windchill Dew Point Humidity Pressure Visibility Wind Dir Wind Speed Gust Speed Precip Events Conditions
12:53 AM 34.0 °F 25.5 °F 21.0 °F 59% 30.34 in 10.0 mi WSW 11.5 mph - N/A   Overcast
1:53 AM 34.0 °F 26.0 °F 21.0 °F 59% 30.33 in 10.0 mi WSW 10.4 mph - N/A   Overcast
2:53 AM 34.0 °F 26.0 °F 21.0 °F 59% 30.35 in 10.0 mi West 10.4 mph - N/A   Overcast
3:53 AM 33.1 °F 24.9 °F 23.0 °F 66% 30.36 in 10.0 mi West 10.4 mph - N/A   Overcast
4:53 AM 33.1 °F 25.5 °F 23.0 °F 66% 30.37 in 10.0 mi WNW 9.2 mph - N/A   Overcast
5:32 AM 32.0 °F 24.2 °F 21.2 °F 64% 30.37 in 10.0 mi West 9.2 mph - N/A   Overcast
5:46 AM 30.2 °F 20.8 °F 19.4 °F 64% 30.37 in 10.0 mi West 11.5 mph - N/A   Scattered Clouds
5:53 AM 30.0 °F 20.5 °F 19.9 °F 66% 30.40 in 10.0 mi West 11.5 mph - N/A   Partly Cloudy
7:53 AM 27.0 °F 18.7 °F 19.9 °F 75% 30.45 in 10.0 mi WSW 8.1 mph - N/A   Clear
8:53 AM 30.0 °F 21.7 °F 21.0 °F 69% 30.47 in 10.0 mi West 9.2 mph - N/A   Clear
9:53 AM 30.9 °F 22.8 °F 21.0 °F 67% 30.49 in 10.0 mi West 9.2 mph - N/A   Overcast
10:53 AM 34.0 °F 29.8 °F 21.9 °F 61% 30.51 in 10.0 mi Variable 4.6 mph - N/A   Overcast
11:53 AM 34.0 °F 31.0 °F 21.9 °F 61% 30.51 in 10.0 mi Variable 3.5 mph - N/A   Mostly Cloudy
12:53 PM 35.1 °F 31.0 °F 21.9 °F 59% 30.49 in 10.0 mi WNW 4.6 mph - N/A   Overcast
1:53 PM 36.0 °F - 21.9 °F 57% 30.48 in 10.0 mi Calm Calm - N/A   Overcast
2:53 PM 37.0 °F - 19.9 °F 50% 30.48 in - Calm Calm - N/A   Clear
3:53 PM 37.9 °F 35.5 °F 21.0 °F 51% 30.48 in - South 3.5 mph - N/A   Clear
4:53 PM 37.0 °F - 21.9 °F 54% 30.48 in - Calm Calm - N/A   Clear
5:53 PM 34.0 °F 31.0 °F 21.0 °F 59% 30.50 in - SSE 3.5 mph - N/A   Clear
6:53 PM 30.9 °F 26.2 °F 21.9 °F 69% 30.51 in - SE 4.6 mph - N/A   Clear
7:53 PM 30.0 °F 26.5 °F 21.0 °F 69% 30.53 in - SSE 3.5 mph - N/A   Clear
8:53 PM 28.0 °F 24.2 °F 21.9 °F 78% 30.54 in - SE 3.5 mph - N/A   Clear
9:53 PM 28.0 °F - 21.0 °F 75% 30.54 in - Calm Calm - N/A   Clear
10:53 PM 26.1 °F - 21.0 °F 81% 30.54 in - Calm Calm - N/A   Clear
11:53 PM 25.0 °F - 21.0 °F 85% 30.54 in - Calm Calm - N/A   Clear